Location: Asheville, NC
(35.6000°N, 82.5500°W)
Time: 14:26:12
(UTC-04:00)

XW-2B - Pass Details

Date: 04 January 2018
Orbit: 511 x 529 km, 97.5° (Epoch: 25 April)

Event Time Altitude Azimuth Distance (km) Brightness Sun altitude
Rises 18:17:31 0° 183° (S) 2,648 ? -9.5°
Reaches altitude 10° 18:19:42 10° 192° (SSW) 1,765 ? -10.0°
Maximum altitude 18:23:17 39° 261° (W) 806 ? -10.6°
Drops below altitude 10° 18:26:54 10° 332° (NNW) 1,780 ? -11.3°
Sets 18:29:07 0° 340° (NNW) 2,674 ? -11.7°
